Home   Weather   Lansing   Past weeks
Flag for USA

Past Weather in Lansing, Michigan, USA — Yesterday and Last 2 Weeks

Now
81 °F

Sunny.


Feels Like: 82 °F
Forecast: 80 / 61 °F
Wind: 16 mph from Southwest

Location: Capital City Airport

Current Time: Jun 25, 2019 at 3:57:53 pm

Latest Report: Jun 25, 2019 at 2:53 pm


Visibility: 10 mi

Pressure: 29.88 "Hg

Humidity: 51%

Dew Point: 61 °F

Location of LansingLocation

Past Weather in Lansing — Graph

°F

Lansing Temperature Yesterday

Maximum temperature yesterday: 77 °F (at 1:05 pm)
Minimum temperature yesterday: 63 °F (at 3:53 am)
Average temperature yesterday: 70 °F

High & Low Weather Summary for the Past Weeks

 TemperatureHumidityPressure
High80 °F (Jun 23, 3:53 pm)100% (Jun 15, 11:20 pm)30.21 "Hg (Jun 15, 11:20 pm)
Low45 °F (Jun 14, 5:53 am)32% (Jun 11, 6:53 pm)29.61 "Hg (Jun 24, 5:53 pm)
Average64 °F76%29.88 "Hg
* Reported Jun 10 1:34 pm — Jun 25 1:53 pm, Lansing. Weather by CustomWeather, © 2019

Note: Actual official high and low records may vary slightly from our data, if they occured in-between our weather recording intervals... More about our weather records

Advertising

Lansing Weather History for the Previous 24 Hours

Scroll right to see more
 ConditionsComfort  
Time TempWeatherWind HumidityBarometerVisibility
1:53 pm
Tue, Jun 25
78 °FSunny.14 mph52%29.88 "Hg10 mi
12:53 pm77 °FPassing clouds.21 mph52%29.88 "Hg10 mi
11:53 am74 °FSunny.17 mph52%29.87 "Hg10 mi
10:53 am71 °FSunny.17 mph61%29.85 "Hg10 mi
9:53 am69 °FSunny.16 mph68%29.84 "Hg10 mi
8:53 am67 °FSunny.20 mph73%29.82 "Hg10 mi
7:53 am65 °FSunny.14 mph78%29.80 "Hg10 mi
7:11 am63 °FPassing clouds.16 mph84%29.79 "Hg10 mi
6:53 am63 °FPartly sunny.20 mph84%29.77 "Hg10 mi
6:08 am63 °FMostly cloudy.16 mph87%29.77 "Hg10 mi
4:53 am63 °FPassing clouds.14 mph87%29.72 "Hg10 mi
3:53 am62 °FClear.12 mph86%29.71 "Hg10 mi
2:53 am62 °FClear.12 mph90%29.69 "Hg10 mi
1:53 am64 °FPassing clouds.10 mph81%29.68 "Hg10 mi
12:53 am64 °FClear.9 mph84%29.67 "Hg10 mi
11:53 pm
Mon, Jun 24
67 °FClear.13 mph81%29.65 "Hg10 mi
10:53 pm68 °FClear.12 mph93%29.65 "Hg10 mi
9:53 pm69 °FClear.8 mph93%29.64 "Hg10 mi
9:00 pm70 °FScattered clouds.9 mph90%29.65 "Hg10 mi
7:53 pm71 °FScattered clouds.9 mph90%29.61 "Hg10 mi
6:53 pm69 °FOvercast.9 mph90%29.61 "Hg10 mi
6:21 pm66 °FLight rain. Fog.7 mph93%29.61 "Hg3 mi
5:53 pm72 °FRain. Cloudy.14 mph81%29.61 "Hg4 mi
4:53 pm75 °FPartly sunny.12 mph71%29.61 "Hg10 mi
3:53 pm76 °FBroken clouds.13 mph69%29.63 "Hg10 mi
Weather by CustomWeather, © 2019

See weather overview